DateTimeUTC,F1_A11,F1_S11,BsB_S11,BsG_S11,BsR_S11,BbsB_S11,BbsG_S11,BbsR_S11,BaB_A11,BaG_A11,BaR_A11,Tu_S11,T_S11,Uu_S11,U_S11,P_S11,T1_A11
2021-03-29T04:00:00Z,00000200,21000000,,,,,,,-000.50,-000.33,-000.01,16.9,24.3,,00.0,0639.3,31.0
2021-03-29T04:01:00Z,00000200,21000000,,,,,,,0000.03,-000.29,0000.03,16.9,24.3,,00.0,0639.3,31.0
2021-03-29T04:02:00Z,00000200,21000000,,,,,,,-000.18,0000.15,-000.42,17.0,24.3,,00.0,0639.3,31.0
2021-03-29T04:03:00Z,00000200,61000000,,,,,,,0000.18,-000.18,0000.24,17.0,24.4,,00.0,0639.3,31.0
2021-03-29T04:04:00Z,00000200,41000000,0001.01,0000.70,0000.65,0000.45,0000.08,0000.31,0000.42,0000.37,0000.44,17.2,24.2,,00.0,0640.2,31.0
2021-03-29T04:05:00Z,00000200,01000000,0001.18,0000.84,0000.73,0000.25,0000.42,-000.01,0000.42,0000.60,0000.50,17.2,24.2,,00.0,0640.3,31.0
2021-03-29T04:06:00Z,00000200,01000000,0001.02,0000.75,0000.38,0000.29,0000.13,0000.17,0000.33,0000.11,0000.11,17.2,24.2,,00.0,0640.2,30.9
2021-03-29T04:07:00Z,00000200,01000000,0000.91,0000.89,0000.55,-000.35,0000.20,0000.29,0000.61,0000.71,0000.50,17.1,24.1,,00.0,0640.2,30.9
2021-03-29T04:08:00Z,00000200,01000000,0001.44,0000.78,0000.65,-000.20,0000.26,0000.08,0000.46,0000.10,0000.06,17.1,24.1,,00.0,0640.2,30.9
2021-03-29T04:09:00Z,00000200,01000000,0000.56,0001.09,0000.63,0000.22,0000.37,0000.18,0000.59,0000.41,0000.19,17.0,24.1,,00.0,0640.2,30.9
2021-03-29T04:10:00Z,00000200,01000000,0001.19,0000.68,0000.56,0000.04,0000.17,0000.32,0000.36,0000.42,0000.54,17.0,24.0,,00.0,0640.2,30.9
2021-03-29T04:11:00Z,00000200,01000000,0000.38,0000.57,0000.36,0000.42,0000.23,0000.08,0000.47,0000.40,0000.30,16.9,24.0,,00.0,0640.2,30.9
2021-03-29T04:12:00Z,00000200,01000000,0000.86,0000.78,0000.42,0000.63,0000.13,0000.17,0000.49,0000.60,0000.64,16.9,24.0,,00.0,0640.2,30.9
2021-03-29T04:13:00Z,00000200,01000000,0000.69,0000.79,0000.41,-000.24,0000.26,0000.37,0000.43,0000.26,0000.03,16.9,24.0,,00.0,0640.3,30.9
2021-03-29T04:14:00Z,00000200,01000000,0000.93,0000.47,0000.47,0000.41,0000.07,0000.37,0000.29,0000.43,0000.21,16.8,24.0,,00.0,0640.3,30.9
2021-03-29T04:15:00Z,00000200,01000000,0001.86,0000.88,0000.76,-000.46,0000.31,0000.14,0000.36,0000.23,0000.32,16.8,23.9,,00.0,0640.3,30.9
2021-03-29T04:16:00Z,00000200,01000000,0001.65,0001.14,0000.50,0000.53,0000.34,0000.16,0000.16,0000.33,0000.36,16.7,23.9,,00.0,0640.3,30.9
2021-03-29T04:17:00Z,00000200,01000000,0001.31,0000.73,0000.44,-000.33,0000.11,0000.07,0000.48,0000.37,0000.44,16.7,23.9,,00.0,0640.2,30.9
2021-03-29T04:18:00Z,00000200,01000000,0001.03,0001.06,0000.53,0000.19,0000.22,0000.16,0000.65,0000.45,0000.15,16.7,23.9,,00.0,0640.2,30.9
2021-03-29T04:19:00Z,00000200,01000000,0000.69,0000.87,0000.60,0000.04,0000.54,0000.36,0000.30,0000.54,0000.66,16.6,23.8,,00.0,0640.2,30.9
2021-03-29T04:20:00Z,00000200,01000000,0000.74,0000.72,0000.35,0000.29,0000.13,0000.27,0000.56,0000.44,-000.05,16.6,23.8,,00.0,0640.2,30.9
2021-03-29T04:21:00Z,00000200,01000000,0000.44,0000.68,0000.58,-000.28,0000.35,0000.20,0000.65,0000.27,0000.46,16.6,23.8,,00.0,0640.2,30.9
2021-03-29T04:22:00Z,00000200,01000000,0000.14,0000.98,0000.55,0000.06,0000.42,0000.30,0000.11,0000.21,0000.29,16.6,23.8,,00.0,0640.2,30.9
2021-03-29T04:23:00Z,00000200,01000000,0001.05,0000.96,0000.40,-000.10,0000.16,0000.27,0000.43,0000.45,0000.11,16.5,23.8,,00.0,0640.2,30.9
2021-03-29T04:24:00Z,00000200,01000000,0000.95,0000.91,0000.53,-000.23,0000.26,0000.25,0000.42,0000.39,0000.39,16.5,23.7,,00.0,0640.2,30.9
2021-03-29T04:25:00Z,00000200,01000000,0000.81,0000.61,0000.58,0000.06,0000.31,0000.29,0000.23,0000.21,0000.31,16.5,23.7,,00.0,0640.2,30.8
2021-03-29T04:26:00Z,00000200,01000000,0000.85,0000.71,0000.50,0000.09,0000.43,0000.19,0000.45,0000.75,0000.52,16.5,23.7,,00.0,0640.2,30.9
2021-03-29T04:27:00Z,00000200,01000000,0000.89,0001.01,0000.63,-000.04,0000.35,0000.13,0000.55,0000.11,0000.33,16.6,23.7,,00.0,0640.2,30.9
2021-03-29T04:28:00Z,00000200,01000000,0001.23,0001.00,0000.24,0000.34,0000.10,0000.17,0000.47,0000.68,0000.00,16.7,23.7,,00.0,0640.2,30.9
2021-03-29T04:29:00Z,00000200,01000000,0001.49,0000.77,0000.06,-000.25,0000.30,0000.22,0000.67,0000.22,0000.46,16.7,23.8,,00.0,0640.2,30.9
2021-03-29T04:30:00Z,00000200,01000000,0001.54,0000.95,0000.72,0000.18,0000.55,0000.36,0000.07,0000.66,0000.34,16.8,23.8,,00.0,0640.2,30.9
2021-03-29T04:31:00Z,00000200,01000000,0000.72,0000.80,0000.27,0000.04,0000.48,-000.06,0000.24,-000.01,0000.14,16.9,23.8,,00.0,0640.3,30.9
2021-03-29T04:32:00Z,00000200,01000000,0001.35,0000.77,0000.54,0000.31,0000.17,0000.29,0000.26,0000.38,-000.04,16.9,23.9,,00.0,0640.3,30.9
2021-03-29T04:33:00Z,00000200,01000000,0000.74,0000.96,0000.64,0000.03,0000.34,0000.29,0000.01,0000.25,0000.11,16.9,23.9,,00.0,0640.3,30.9
2021-03-29T04:34:00Z,00000200,01000000,0000.96,0001.16,0000.32,0000.26,0000.17,0000.09,0000.58,0000.32,0000.61,16.9,23.9,,00.0,0640.3,30.9
2021-03-29T04:35:00Z,00000200,01000000,0001.01,0000.96,0000.35,0000.05,0000.33,0000.24,0000.11,0000.56,0000.06,16.8,23.9,,00.0,0640.3,30.9
2021-03-29T04:36:00Z,00000200,01000000,0001.50,0000.66,0000.55,0000.27,0000.18,0000.31,0000.88,0000.32,0000.47,16.8,23.9,,00.0,0640.3,30.9
2021-03-29T04:37:00Z,00000200,01000000,0000.90,0000.83,0000.58,0000.14,0000.43,0000.18,0000.27,0000.26,0000.29,16.8,23.8,,00.0,0640.3,30.9
2021-03-29T04:38:00Z,00000200,01000000,0001.25,0000.81,0000.53,-000.18,0000.21,0000.05,0000.26,0000.12,0000.24,16.7,23.8,,00.0,0640.3,30.9
2021-03-29T04:39:00Z,00000200,01000000,0001.01,0001.17,0000.58,0000.65,0000.36,0000.02,0000.57,0000.34,0000.33,16.7,23.8,,00.0,0640.3,30.9
2021-03-29T04:40:00Z,00000200,01000000,0001.41,0001.06,0000.73,0000.10,0000.28,0000.17,0000.56,0000.74,0000.29,16.7,23.8,,00.0,0640.3,30.9
2021-03-29T04:41:00Z,00000200,01000000,0001.44,0001.19,0000.67,-000.12,0000.40,0000.32,0000.78,0000.85,0000.86,16.7,23.7,,00.0,0640.3,30.9
2021-03-29T04:42:00Z,00000200,01000000,0001.09,0000.69,0000.63,-000.11,0000.27,0000.12,0000.09,0000.06,0000.25,16.7,23.8,,00.0,0640.3,30.9
2021-03-29T04:43:00Z,00000200,01000000,0001.00,0000.68,0000.48,0000.10,0000.38,0000.21,0000.74,0000.18,0000.40,16.8,23.8,,00.0,0640.3,30.9
2021-03-29T04:44:00Z,00000200,01000000,0001.60,0000.82,0000.76,0000.20,0000.23,0000.18,0000.51,0000.98,0000.75,16.9,23.8,,00.0,0640.3,30.9
2021-03-29T04:45:00Z,00000200,01000000,0001.05,0001.02,0000.51,0000.15,0000.36,0000.37,0000.49,0000.48,-000.18,17.0,23.9,,00.0,0640.3,31.0
2021-03-29T04:46:00Z,00000200,01000000,0001.58,0000.93,0000.43,0000.02,0000.32,0000.12,0000.42,-000.10,0000.04,17.1,23.9,,00.0,0640.3,31.0
2021-03-29T04:47:00Z,00000200,01000000,0000.93,0000.89,0000.54,-000.04,0000.47,0000.21,0000.05,0000.69,0000.65,17.1,24.0,,00.0,0640.3,31.0
2021-03-29T04:48:00Z,00000200,01000000,0001.19,0000.88,0000.49,-000.05,0000.36,0000.41,0000.47,0000.20,0000.18,17.2,24.0,,00.0,0640.3,31.0
2021-03-29T04:49:00Z,00000200,01000000,0001.01,0000.64,0000.49,0000.41,0000.26,0000.16,0000.54,0000.52,0000.44,17.2,24.0,,00.0,0640.4,31.0
2021-03-29T04:50:00Z,00000200,01000000,0001.46,0001.07,0000.61,0000.22,0000.19,0000.16,0000.32,-000.07,0000.21,17.1,24.0,,00.0,0640.4,30.9
2021-03-29T04:51:00Z,00000200,01000000,0001.24,0000.79,0000.70,0000.31,0000.26,0000.18,0000.02,0000.32,-000.20,17.1,24.0,,00.0,0640.4,30.9
2021-03-29T04:52:00Z,00000200,01000000,0000.91,0000.95,0000.46,0000.23,0000.22,0000.19,0000.64,0000.45,0000.63,17.0,23.9,,00.0,0640.4,30.9
2021-03-29T04:53:00Z,00000200,01000000,0001.49,0000.99,0000.56,0000.66,0000.17,-000.15,0000.31,0000.15,0000.37,17.0,23.9,,00.0,0640.4,30.9
2021-03-29T04:54:00Z,00000200,01000000,0001.05,0001.11,0000.38,-000.13,0000.17,0000.44,0000.24,0000.84,0000.01,16.9,23.9,,00.0,0640.4,30.9
2021-03-29T04:55:00Z,00000200,01000000,0000.74,0000.86,0000.60,0000.10,0000.09,0000.29,0000.90,0000.41,0000.19,16.9,23.9,,00.0,0640.4,30.9
2021-03-29T04:56:00Z,00000200,01000000,0001.28,0001.12,0000.55,0000.52,0000.26,0000.35,0000.19,0000.21,0000.54,16.9,23.9,,00.0,0640.4,30.9
2021-03-29T04:57:00Z,00000200,41000000,,,,,,,0000.14,0000.56,0000.35,17.0,23.9,,00.0,0640.4,30.9
2021-03-29T04:58:00Z,00000200,61000000,,,,,,,0000.26,-000.04,0000.18,16.8,24.1,,00.0,0639.4,30.9
2021-03-29T04:59:00Z,00000200,21000000,,,,,,,-000.04,0000.04,0000.34,16.8,24.2,,00.0,0639.4,31.0
